Year,Month,Day,Hour,Minute,Value (Times are PST for temperature in C)
2010,07,05,00,00,11.50
2010,07,05,00,01,11.50
2010,07,05,00,02,11.50
2010,07,05,00,03,11.50
2010,07,05,00,04,11.50
2010,07,05,00,05,11.50
2010,07,05,00,06,11.50
2010,07,05,00,07,11.50
2010,07,05,00,08,11.50
2010,07,05,00,09,11.50
2010,07,05,00,10,11.50
2010,07,05,00,11,11.50
2010,07,05,00,12,11.50
2010,07,05,00,13,11.50
2010,07,05,00,14,11.50
2010,07,05,00,15,11.50
2010,07,05,00,16,11.50
2010,07,05,00,17,11.40
2010,07,05,00,18,11.40
2010,07,05,00,19,11.40
2010,07,05,00,20,11.40
2010,07,05,00,21,11.40
2010,07,05,00,22,11.40
2010,07,05,00,23,11.40
2010,07,05,00,24,11.40
2010,07,05,00,25,11.40
2010,07,05,00,26,11.40
2010,07,05,00,27,11.40
2010,07,05,00,28,11.40
2010,07,05,00,29,11.40
2010,07,05,00,30,11.40
2010,07,05,00,31,11.40
2010,07,05,00,32,11.40
2010,07,05,00,33,11.40
2010,07,05,00,34,11.40
2010,07,05,00,35,11.40
2010,07,05,00,36,11.40
2010,07,05,00,37,11.40
2010,07,05,00,38,11.40
2010,07,05,00,39,11.40
2010,07,05,00,40,11.40
2010,07,05,00,41,11.40
2010,07,05,00,42,11.40
2010,07,05,00,43,11.40
2010,07,05,00,44,11.40
2010,07,05,00,45,11.40
2010,07,05,00,46,11.40
2010,07,05,00,47,11.40
2010,07,05,00,48,11.40
2010,07,05,00,49,11.40
2010,07,05,00,50,11.40
2010,07,05,00,51,11.40
2010,07,05,00,52,11.50
2010,07,05,00,53,11.50
2010,07,05,00,54,11.50
2010,07,05,00,55,11.50
2010,07,05,00,56,11.50
2010,07,05,00,57,11.50
2010,07,05,00,58,11.50
2010,07,05,00,59,11.50
2010,07,05,01,00,11.50
2010,07,05,01,01,11.50
2010,07,05,01,02,11.50
2010,07,05,01,03,11.50
2010,07,05,01,04,11.50
2010,07,05,01,05,11.50
2010,07,05,01,06,11.50
2010,07,05,01,07,11.50
2010,07,05,01,08,11.50
2010,07,05,01,09,11.50
2010,07,05,01,10,11.50
2010,07,05,01,11,11.50
2010,07,05,01,12,11.40
2010,07,05,01,13,11.40
2010,07,05,01,14,11.40
2010,07,05,01,15,11.40
2010,07,05,01,16,11.40
2010,07,05,01,17,11.40
2010,07,05,01,18,11.40
2010,07,05,01,19,11.40
2010,07,05,01,20,11.40
2010,07,05,01,21,11.40
2010,07,05,01,22,11.40
2010,07,05,01,23,11.40
2010,07,05,01,24,11.40
2010,07,05,01,25,11.40
2010,07,05,01,26,11.40
2010,07,05,01,27,11.40
2010,07,05,01,28,11.40
2010,07,05,01,29,11.40
2010,07,05,01,30,11.40
2010,07,05,01,31,11.40
2010,07,05,01,32,11.40
2010,07,05,01,33,11.40
2010,07,05,01,34,11.40
2010,07,05,01,35,11.40
2010,07,05,01,36,11.40
2010,07,05,01,37,11.40
2010,07,05,01,38,11.40
2010,07,05,01,39,11.40
2010,07,05,01,40,11.40
2010,07,05,01,41,11.40
2010,07,05,01,42,11.40
2010,07,05,01,43,11.40
2010,07,05,01,44,11.40
2010,07,05,01,45,11.40
2010,07,05,01,46,11.40
2010,07,05,01,47,11.40
2010,07,05,01,48,11.40
2010,07,05,01,49,11.40
2010,07,05,01,50,11.40
2010,07,05,01,51,11.40
2010,07,05,01,52,11.40
2010,07,05,01,53,11.40
2010,07,05,01,54,11.40
2010,07,05,01,55,11.40
2010,07,05,01,56,11.40
2010,07,05,01,57,11.40
2010,07,05,01,58,11.40
2010,07,05,01,59,11.40
2010,07,05,02,00,11.40
2010,07,05,02,01,11.40
2010,07,05,02,02,11.40
2010,07,05,02,03,11.40
2010,07,05,02,04,11.30
2010,07,05,02,05,11.30
2010,07,05,02,06,11.40
2010,07,05,02,07,11.30
2010,07,05,02,08,11.40
2010,07,05,02,09,11.30
2010,07,05,02,10,11.30
2010,07,05,02,11,11.30
2010,07,05,02,12,11.30
2010,07,05,02,13,11.30
2010,07,05,02,14,11.30
2010,07,05,02,15,11.30
2010,07,05,02,16,11.30
2010,07,05,02,17,11.30
2010,07,05,02,18,11.30
2010,07,05,02,19,11.30
2010,07,05,02,20,11.30
2010,07,05,02,21,11.30
2010,07,05,02,22,11.30
2010,07,05,02,23,11.30
2010,07,05,02,24,11.30
2010,07,05,02,25,11.30
2010,07,05,02,26,11.30
2010,07,05,02,27,11.30
2010,07,05,02,28,11.30
2010,07,05,02,29,11.30
2010,07,05,02,30,11.40
2010,07,05,02,31,11.40
2010,07,05,02,32,11.30
2010,07,05,02,33,11.30
2010,07,05,02,34,11.30
2010,07,05,02,35,11.40
2010,07,05,02,36,11.30
2010,07,05,02,37,11.30
2010,07,05,02,38,11.30
2010,07,05,02,39,11.30
2010,07,05,02,40,11.30
2010,07,05,02,41,11.30
2010,07,05,02,42,11.30
2010,07,05,02,43,11.30
2010,07,05,02,44,11.30
2010,07,05,02,45,11.30
2010,07,05,02,46,11.40
2010,07,05,02,47,11.40
2010,07,05,02,48,11.40
2010,07,05,02,49,11.40
2010,07,05,02,50,11.40
2010,07,05,02,51,11.40
2010,07,05,02,52,11.40
2010,07,05,02,53,11.40
2010,07,05,02,54,11.40
2010,07,05,02,55,11.40
2010,07,05,02,56,11.40
2010,07,05,02,57,11.40
2010,07,05,02,58,11.50
2010,07,05,02,59,11.40
2010,07,05,03,00,11.50
2010,07,05,03,01,11.40
2010,07,05,03,02,11.40
2010,07,05,03,03,11.40
2010,07,05,03,06,11.40
2010,07,05,03,07,11.40
2010,07,05,03,08,11.40
2010,07,05,03,09,11.40
2010,07,05,03,10,11.40
2010,07,05,03,11,11.40
2010,07,05,03,12,11.40
2010,07,05,03,13,11.40
2010,07,05,03,14,11.40
2010,07,05,03,15,11.40
2010,07,05,03,16,11.40
2010,07,05,03,17,11.30
2010,07,05,03,18,11.30
2010,07,05,03,19,11.30
2010,07,05,03,20,11.30
2010,07,05,03,21,11.30
2010,07,05,03,22,11.30
2010,07,05,03,23,11.30
2010,07,05,03,24,11.30
2010,07,05,03,25,11.30
2010,07,05,03,26,11.30
2010,07,05,03,27,11.30
2010,07,05,03,28,11.30
2010,07,05,03,29,11.30
2010,07,05,03,30,11.30
2010,07,05,03,31,11.30
2010,07,05,03,32,11.30
2010,07,05,03,33,11.30
2010,07,05,03,34,11.30
2010,07,05,03,35,11.30
2010,07,05,03,36,11.30
2010,07,05,03,37,11.30
2010,07,05,03,38,11.30
2010,07,05,03,39,11.30
2010,07,05,03,40,11.30
2010,07,05,03,41,11.30
2010,07,05,03,42,11.20
2010,07,05,03,43,11.20
2010,07,05,03,44,11.20
2010,07,05,03,45,11.20
2010,07,05,03,46,11.20
2010,07,05,03,47,11.20
2010,07,05,03,48,11.20
2010,07,05,03,49,11.20
2010,07,05,03,50,11.20
2010,07,05,03,51,11.20
2010,07,05,03,52,11.20
2010,07,05,03,53,11.20
2010,07,05,03,54,11.20
2010,07,05,03,55,11.20
2010,07,05,03,56,11.20
2010,07,05,03,57,11.20
2010,07,05,03,58,11.20
2010,07,05,03,59,11.20
2010,07,05,04,00,11.20
2010,07,05,04,01,11.20
2010,07,05,04,02,11.20
2010,07,05,04,03,11.20
2010,07,05,04,04,11.20
2010,07,05,04,05,11.20
2010,07,05,04,06,11.20
2010,07,05,04,07,11.20
2010,07,05,04,08,11.20
2010,07,05,04,09,11.20
2010,07,05,04,10,11.20
2010,07,05,04,11,11.20
2010,07,05,04,12,11.20
2010,07,05,04,13,11.20
2010,07,05,04,14,11.20
2010,07,05,04,15,11.20
2010,07,05,04,16,11.20
2010,07,05,04,17,11.20
2010,07,05,04,18,11.20
2010,07,05,04,19,11.20
2010,07,05,04,20,11.20
2010,07,05,04,21,11.20
2010,07,05,04,22,11.20
2010,07,05,04,23,11.20
2010,07,05,04,24,11.10
2010,07,05,04,25,11.10
2010,07,05,04,26,11.10
2010,07,05,04,27,11.10
2010,07,05,04,28,11.10
2010,07,05,04,29,11.10
2010,07,05,04,30,11.10
2010,07,05,04,31,11.10
2010,07,05,04,32,11.10
2010,07,05,04,33,11.10
2010,07,05,04,34,11.10
2010,07,05,04,35,11.10
2010,07,05,04,36,11.10
2010,07,05,04,37,11.20
2010,07,05,04,38,11.20
2010,07,05,04,39,11.20
2010,07,05,04,40,11.20
2010,07,05,04,41,11.20
2010,07,05,04,42,11.20
2010,07,05,04,43,11.20
2010,07,05,04,44,11.20
2010,07,05,04,45,11.20
2010,07,05,04,46,11.20
2010,07,05,04,47,11.20
2010,07,05,04,48,11.20
2010,07,05,04,49,11.20
2010,07,05,04,50,11.20
2010,07,05,04,51,11.20
2010,07,05,04,52,11.20
2010,07,05,04,53,11.20
2010,07,05,04,54,11.20
2010,07,05,04,55,11.10
2010,07,05,04,56,11.10
2010,07,05,04,57,11.10
2010,07,05,04,58,11.10
2010,07,05,04,59,11.10
2010,07,05,05,00,11.10
2010,07,05,05,01,11.10
2010,07,05,05,02,11.10
2010,07,05,05,03,11.10
2010,07,05,05,04,11.10
2010,07,05,05,05,11.10
2010,07,05,05,06,11.00
2010,07,05,05,07,11.00
2010,07,05,05,08,11.00
2010,07,05,05,09,11.00
2010,07,05,05,10,11.00
2010,07,05,05,11,11.00
2010,07,05,05,12,11.00
2010,07,05,05,13,11.00
2010,07,05,05,14,11.00
2010,07,05,05,15,10.90
2010,07,05,05,16,10.90
2010,07,05,05,17,10.90
2010,07,05,05,18,10.90
2010,07,05,05,19,10.90
2010,07,05,05,20,10.90
2010,07,05,05,21,10.90
2010,07,05,05,22,10.90
2010,07,05,05,23,10.90
2010,07,05,05,24,10.90
2010,07,05,05,25,10.90
2010,07,05,05,26,10.90
2010,07,05,05,27,10.90
2010,07,05,05,28,10.90
2010,07,05,05,29,10.90
2010,07,05,05,30,10.90
2010,07,05,05,31,10.90
2010,07,05,05,32,10.80
2010,07,05,05,33,10.80
2010,07,05,05,34,10.80
2010,07,05,05,35,10.80
2010,07,05,05,36,10.80
2010,07,05,05,37,10.80
2010,07,05,05,38,10.80
2010,07,05,05,39,10.80
2010,07,05,05,40,10.80
2010,07,05,05,41,10.80
2010,07,05,05,42,10.80
2010,07,05,05,43,10.80
2010,07,05,05,44,10.80
2010,07,05,05,45,10.80
2010,07,05,05,46,10.80
2010,07,05,05,47,10.80
2010,07,05,05,48,10.80
2010,07,05,05,49,10.70
2010,07,05,05,50,10.70
2010,07,05,05,51,10.70
2010,07,05,05,52,10.60
2010,07,05,05,53,10.60
2010,07,05,05,54,10.50
2010,07,05,05,55,10.50
2010,07,05,05,56,10.40
2010,07,05,05,57,10.40
2010,07,05,05,58,10.30
2010,07,05,05,59,10.30
2010,07,05,06,00,10.20
2010,07,05,06,01,10.20
2010,07,05,06,02,10.20
2010,07,05,06,03,10.10
2010,07,05,06,04,10.10
2010,07,05,06,05,10.10
2010,07,05,06,06,10.10
2010,07,05,06,07,10.00
2010,07,05,06,08,10.00
2010,07,05,06,09,10.00
2010,07,05,06,10,10.00
2010,07,05,06,11,10.00
2010,07,05,06,12,9.90
2010,07,05,06,13,9.90
2010,07,05,06,14,9.90
2010,07,05,06,15,9.90
2010,07,05,06,16,9.90
2010,07,05,06,17,9.90
2010,07,05,06,18,9.90
2010,07,05,06,19,9.90
2010,07,05,06,20,9.90
2010,07,05,06,21,9.90
2010,07,05,06,22,9.90
2010,07,05,06,23,9.90
2010,07,05,06,24,9.80
2010,07,05,06,25,9.80
2010,07,05,06,26,9.80
2010,07,05,06,27,9.80
2010,07,05,06,28,9.80
2010,07,05,06,29,9.70
2010,07,05,06,30,9.70
2010,07,05,06,31,9.70
2010,07,05,06,32,9.70
2010,07,05,06,33,9.70
2010,07,05,06,34,9.70
2010,07,05,06,35,9.80
2010,07,05,06,36,9.80
2010,07,05,06,37,9.80
2010,07,05,06,38,9.90
2010,07,05,06,39,10.00
2010,07,05,06,40,10.00
2010,07,05,06,41,10.10
2010,07,05,06,42,10.10
2010,07,05,06,43,10.20
2010,07,05,06,44,10.20
2010,07,05,06,45,10.20
2010,07,05,06,46,10.30
2010,07,05,06,47,10.30
2010,07,05,06,48,10.30
2010,07,05,06,49,10.30
2010,07,05,06,50,10.30
2010,07,05,06,51,10.40
2010,07,05,06,52,10.40
2010,07,05,06,53,10.40
2010,07,05,06,54,10.50
2010,07,05,06,55,10.50
2010,07,05,06,56,10.60
2010,07,05,06,57,10.60
2010,07,05,06,58,10.60
2010,07,05,06,59,10.70
2010,07,05,07,00,10.70
2010,07,05,07,01,10.80
2010,07,05,07,02,10.80
2010,07,05,07,03,10.80
2010,07,05,07,04,10.90
2010,07,05,07,05,10.90
2010,07,05,07,06,11.00
2010,07,05,07,07,11.00
2010,07,05,07,08,11.10
2010,07,05,07,09,11.20
2010,07,05,07,10,11.30
2010,07,05,07,11,11.30
2010,07,05,07,12,11.40
2010,07,05,07,13,11.40
2010,07,05,07,14,11.50
2010,07,05,07,15,11.50
2010,07,05,07,16,11.60
2010,07,05,07,17,11.60
2010,07,05,07,18,11.70
2010,07,05,07,19,11.70
2010,07,05,07,20,11.80
2010,07,05,07,21,11.80
2010,07,05,07,22,11.90
2010,07,05,07,23,11.90
2010,07,05,07,24,11.90
2010,07,05,07,25,11.90
2010,07,05,07,26,11.90
2010,07,05,07,27,11.90
2010,07,05,07,28,11.90
2010,07,05,07,29,11.90
2010,07,05,07,30,11.90
2010,07,05,07,31,11.90
2010,07,05,07,32,11.90
2010,07,05,07,33,11.90
2010,07,05,07,34,11.90
2010,07,05,07,35,11.90
2010,07,05,07,36,11.90
2010,07,05,07,37,11.90
2010,07,05,07,38,11.90
2010,07,05,07,39,11.90
2010,07,05,07,40,12.00
2010,07,05,07,41,12.00
2010,07,05,07,42,12.00
2010,07,05,07,43,12.10
2010,07,05,07,44,12.10
2010,07,05,07,45,12.10
2010,07,05,07,46,12.10
2010,07,05,07,47,12.10
2010,07,05,07,48,12.20
2010,07,05,07,49,12.20
2010,07,05,07,50,12.20
2010,07,05,07,51,12.30
2010,07,05,07,52,12.40
2010,07,05,07,53,12.50
2010,07,05,07,54,12.60
2010,07,05,07,55,12.60
2010,07,05,07,56,12.70
2010,07,05,07,57,12.70
2010,07,05,07,58,12.70
2010,07,05,07,59,12.80
2010,07,05,08,00,12.80
2010,07,05,08,01,12.90
2010,07,05,08,02,12.90
2010,07,05,08,03,12.90
2010,07,05,08,04,12.90
2010,07,05,08,05,12.90
2010,07,05,08,06,12.90
2010,07,05,08,07,12.90
2010,07,05,08,08,12.90
2010,07,05,08,09,12.90
2010,07,05,08,10,12.90
2010,07,05,08,11,13.00
2010,07,05,08,12,13.00
2010,07,05,08,13,13.00
2010,07,05,08,14,13.10
2010,07,05,08,15,13.10
2010,07,05,08,16,13.10
2010,07,05,08,17,13.10
2010,07,05,08,18,13.10
2010,07,05,08,19,13.10
2010,07,05,08,20,13.00
2010,07,05,08,21,13.00
2010,07,05,08,22,13.10
2010,07,05,08,23,13.10
2010,07,05,08,24,13.00
2010,07,05,08,25,13.00
2010,07,05,08,26,13.00
2010,07,05,08,27,13.10
2010,07,05,08,28,13.10
2010,07,05,08,29,13.10
2010,07,05,08,30,13.20
2010,07,05,08,31,13.20
2010,07,05,08,32,13.20
2010,07,05,08,33,13.20
2010,07,05,08,34,13.30
2010,07,05,08,35,13.30
2010,07,05,08,36,13.30
2010,07,05,08,37,13.40
2010,07,05,08,38,13.40
2010,07,05,08,39,13.50
2010,07,05,08,40,13.50
2010,07,05,08,41,13.60
2010,07,05,08,42,13.70
2010,07,05,08,43,13.80
2010,07,05,08,44,13.80
2010,07,05,08,45,13.80
2010,07,05,08,46,13.80
2010,07,05,08,47,13.80
2010,07,05,08,48,13.80
2010,07,05,08,49,13.80
2010,07,05,08,50,13.80
2010,07,05,08,51,13.80
2010,07,05,08,52,13.90
2010,07,05,08,53,13.90
2010,07,05,08,54,13.90
2010,07,05,08,55,13.90
2010,07,05,08,56,13.90
2010,07,05,08,57,14.00
2010,07,05,08,58,14.00
2010,07,05,08,59,14.10
2010,07,05,09,00,14.20
2010,07,05,09,01,14.20
2010,07,05,09,02,14.20
2010,07,05,09,03,14.20
2010,07,05,09,04,14.30
2010,07,05,09,05,14.40
2010,07,05,09,06,14.40
2010,07,05,09,07,14.50
2010,07,05,09,08,14.50
2010,07,05,09,09,14.50
2010,07,05,09,10,14.60
2010,07,05,09,11,14.50
2010,07,05,09,12,14.50
2010,07,05,09,13,14.50
2010,07,05,09,14,14.50
2010,07,05,09,15,14.50
2010,07,05,09,16,14.60
2010,07,05,09,17,14.60
2010,07,05,09,18,14.60
2010,07,05,09,19,14.50
2010,07,05,09,20,14.50
2010,07,05,09,21,14.40
2010,07,05,09,22,14.40
2010,07,05,09,23,14.40
2010,07,05,09,24,14.30
2010,07,05,09,25,14.20
2010,07,05,09,26,14.20
2010,07,05,09,27,14.20
2010,07,05,09,28,14.20
2010,07,05,09,29,14.20
2010,07,05,09,30,14.20
2010,07,05,09,31,14.20
2010,07,05,09,32,14.10
2010,07,05,09,33,14.10
2010,07,05,09,34,14.10
2010,07,05,09,35,14.00
2010,07,05,09,36,14.00
2010,07,05,09,37,13.90
2010,07,05,09,38,13.90
2010,07,05,09,39,13.90
2010,07,05,09,40,13.90
2010,07,05,09,41,14.00
2010,07,05,09,42,14.00
2010,07,05,09,43,14.10
2010,07,05,09,44,14.20
2010,07,05,09,45,14.20
2010,07,05,09,46,14.20
2010,07,05,09,47,14.20
2010,07,05,09,48,14.10
2010,07,05,09,49,14.10
2010,07,05,09,50,14.10
2010,07,05,09,51,14.10
2010,07,05,09,52,14.10
2010,07,05,09,53,14.20
2010,07,05,09,54,14.30
2010,07,05,09,55,14.30
2010,07,05,09,56,14.40
2010,07,05,09,57,14.50
2010,07,05,09,58,14.50
2010,07,05,09,59,14.60
2010,07,05,10,00,14.70
2010,07,05,10,01,14.80
2010,07,05,10,02,14.90
2010,07,05,10,03,14.90
2010,07,05,10,04,14.90
2010,07,05,10,05,14.90
2010,07,05,10,06,14.90
2010,07,05,10,07,15.00
2010,07,05,10,08,15.10
2010,07,05,10,09,15.10
2010,07,05,10,10,15.20
2010,07,05,10,11,15.20
2010,07,05,10,12,15.30
2010,07,05,10,13,15.40
2010,07,05,10,14,15.40
2010,07,05,10,15,15.40
2010,07,05,10,16,15.40
2010,07,05,10,17,15.40
2010,07,05,10,18,15.40
2010,07,05,10,19,15.40
2010,07,05,10,20,15.40
2010,07,05,10,21,15.50
2010,07,05,10,22,15.60
2010,07,05,10,23,15.70
2010,07,05,10,24,15.80
2010,07,05,10,25,15.90
2010,07,05,10,26,16.00
2010,07,05,10,27,16.10
2010,07,05,10,28,16.20
2010,07,05,10,29,16.30
2010,07,05,10,30,16.30
2010,07,05,10,31,16.30
2010,07,05,10,32,16.30
2010,07,05,10,33,16.40
2010,07,05,10,34,16.40
2010,07,05,10,35,16.30
2010,07,05,10,36,16.10
2010,07,05,10,37,16.00
2010,07,05,10,38,15.90
2010,07,05,10,39,15.80
2010,07,05,10,40,15.80
2010,07,05,10,41,15.70
2010,07,05,10,42,15.70
2010,07,05,10,43,15.70
2010,07,05,10,44,15.60
2010,07,05,10,45,15.70
2010,07,05,10,46,15.70
2010,07,05,10,47,15.70
2010,07,05,10,48,15.60
2010,07,05,10,49,15.60
2010,07,05,10,50,15.50
2010,07,05,10,51,15.40
2010,07,05,10,52,15.30
2010,07,05,10,53,15.30
2010,07,05,10,54,15.40
2010,07,05,10,55,15.40
2010,07,05,10,56,15.40
2010,07,05,10,57,15.40
2010,07,05,10,58,15.30
2010,07,05,10,59,15.20
2010,07,05,11,00,15.20
2010,07,05,11,01,15.10
2010,07,05,11,02,15.10
2010,07,05,11,03,15.10
2010,07,05,11,04,15.10
2010,07,05,11,05,15.10
2010,07,05,11,06,15.00
2010,07,05,11,07,15.00
2010,07,05,11,08,15.10
2010,07,05,11,09,15.20
2010,07,05,11,10,15.30
2010,07,05,11,11,15.40
2010,07,05,11,12,15.50
2010,07,05,11,13,15.50
2010,07,05,11,14,15.50
2010,07,05,11,15,15.50
2010,07,05,11,16,15.40
2010,07,05,11,17,15.40
2010,07,05,11,18,15.40
2010,07,05,11,19,15.50
2010,07,05,11,20,15.40
2010,07,05,11,21,15.40
2010,07,05,11,22,15.40
2010,07,05,11,23,15.40
2010,07,05,11,24,15.30
2010,07,05,11,25,15.30
2010,07,05,11,26,15.30
2010,07,05,11,27,15.30
2010,07,05,11,28,15.40
2010,07,05,11,29,15.40
2010,07,05,11,30,15.50
2010,07,05,11,31,15.60
2010,07,05,11,32,15.60
2010,07,05,11,33,15.70
2010,07,05,11,34,15.70
2010,07,05,11,35,15.80
2010,07,05,11,36,15.80
2010,07,05,11,37,15.90
2010,07,05,11,38,15.90
2010,07,05,11,39,15.90
2010,07,05,11,40,16.00
2010,07,05,11,41,16.10
2010,07,05,11,42,16.10
2010,07,05,11,43,16.20
2010,07,05,11,44,16.30
2010,07,05,11,45,16.40
2010,07,05,11,46,16.40
2010,07,05,11,47,16.40
2010,07,05,11,48,16.40
2010,07,05,11,49,16.40
2010,07,05,11,50,16.40
2010,07,05,11,51,16.30
2010,07,05,11,52,16.30
2010,07,05,11,53,16.20
2010,07,05,11,54,16.30
2010,07,05,11,55,16.30
2010,07,05,11,56,16.30
2010,07,05,11,57,16.20
2010,07,05,11,58,16.20
2010,07,05,11,59,16.10
2010,07,05,12,00,16.10
2010,07,05,12,01,16.00
2010,07,05,12,02,16.00
2010,07,05,12,03,16.00
2010,07,05,12,04,15.90
2010,07,05,12,05,16.00
2010,07,05,12,06,16.00
2010,07,05,12,07,16.10
2010,07,05,12,08,16.10
2010,07,05,12,09,16.00
2010,07,05,12,10,16.00
2010,07,05,12,11,16.00
2010,07,05,12,12,16.10
2010,07,05,12,13,16.10
2010,07,05,12,14,16.10
2010,07,05,12,15,16.20
2010,07,05,12,16,16.30
2010,07,05,12,17,16.30
2010,07,05,12,18,16.40
2010,07,05,12,19,16.40
2010,07,05,12,20,16.40
2010,07,05,12,21,16.30
2010,07,05,12,22,16.30
2010,07,05,12,23,16.30
2010,07,05,12,24,16.30
2010,07,05,12,25,16.20
2010,07,05,12,26,16.20
2010,07,05,12,27,16.30
2010,07,05,12,28,16.30
2010,07,05,12,29,16.30
2010,07,05,12,30,16.20
2010,07,05,12,31,16.20
2010,07,05,12,32,16.20
2010,07,05,12,33,16.20
2010,07,05,12,34,16.30
2010,07,05,12,35,16.30
2010,07,05,12,36,16.40
2010,07,05,12,37,16.50
2010,07,05,12,38,16.50
2010,07,05,12,39,16.60
2010,07,05,12,40,16.70
2010,07,05,12,41,16.70
2010,07,05,12,42,16.70
2010,07,05,12,43,16.80
2010,07,05,12,44,16.80
2010,07,05,12,45,16.80
2010,07,05,12,46,16.70
2010,07,05,12,47,16.70
2010,07,05,12,48,16.70
2010,07,05,12,49,16.80
2010,07,05,12,50,16.80
2010,07,05,12,51,16.70
2010,07,05,12,52,16.70
2010,07,05,12,53,16.70
2010,07,05,12,54,16.70
2010,07,05,12,55,16.70
2010,07,05,12,56,16.50
2010,07,05,12,57,16.40
2010,07,05,12,58,16.40
2010,07,05,12,59,16.50
2010,07,05,13,00,16.60
2010,07,05,13,01,16.80
2010,07,05,13,02,16.80
2010,07,05,13,03,16.80
2010,07,05,13,04,16.80
2010,07,05,13,05,16.80
2010,07,05,13,06,16.70
2010,07,05,13,07,16.70
2010,07,05,13,08,16.80
2010,07,05,13,09,16.80
2010,07,05,13,10,16.80
2010,07,05,13,11,16.90
2010,07,05,13,12,16.90
2010,07,05,13,13,16.90
2010,07,05,13,14,16.90
2010,07,05,13,15,16.90
2010,07,05,13,16,17.00
2010,07,05,13,17,17.10
2010,07,05,13,18,17.00
2010,07,05,13,19,17.00
2010,07,05,13,20,17.00
2010,07,05,13,21,17.00
2010,07,05,13,22,17.00
2010,07,05,13,23,17.00
2010,07,05,13,24,17.10
2010,07,05,13,25,17.20
2010,07,05,13,26,17.40
2010,07,05,13,27,17.50
2010,07,05,13,28,17.60
2010,07,05,13,29,17.60
2010,07,05,13,30,17.70
2010,07,05,13,31,17.70
2010,07,05,13,32,17.70
2010,07,05,13,33,17.60
2010,07,05,13,34,17.60
2010,07,05,13,35,17.60
2010,07,05,13,36,17.50
2010,07,05,13,37,17.40
2010,07,05,13,38,17.40
2010,07,05,13,39,17.30
2010,07,05,13,40,17.20
2010,07,05,13,41,17.10
2010,07,05,13,42,17.10
2010,07,05,13,43,17.10
2010,07,05,13,44,17.20
2010,07,05,13,45,17.20
2010,07,05,13,46,17.30
2010,07,05,13,47,17.30
2010,07,05,13,48,17.40
2010,07,05,13,49,17.40
2010,07,05,13,50,17.40
2010,07,05,13,51,17.40
2010,07,05,13,52,17.40
2010,07,05,13,53,17.40
2010,07,05,13,54,17.50
2010,07,05,13,55,17.50
2010,07,05,13,56,17.50
2010,07,05,13,57,17.60
2010,07,05,13,58,17.60
2010,07,05,13,59,17.70
2010,07,05,14,00,17.70
2010,07,05,14,01,17.80
2010,07,05,14,02,17.90
2010,07,05,14,03,18.00
2010,07,05,14,04,18.10
2010,07,05,14,05,18.10
2010,07,05,14,06,18.10
2010,07,05,14,07,18.20
2010,07,05,14,08,18.20
2010,07,05,14,09,18.20
2010,07,05,14,10,18.10
2010,07,05,14,11,18.10
2010,07,05,14,12,18.10
2010,07,05,14,13,18.00
2010,07,05,14,14,18.00
2010,07,05,14,15,18.00
2010,07,05,14,16,18.10
2010,07,05,14,17,18.20
2010,07,05,14,18,18.20
2010,07,05,14,19,18.20
2010,07,05,14,20,18.20
2010,07,05,14,21,18.20
2010,07,05,14,22,18.10
2010,07,05,14,23,18.10
2010,07,05,14,24,18.10
2010,07,05,14,25,18.10
2010,07,05,14,26,18.20
2010,07,05,14,27,18.10
2010,07,05,14,28,18.00
2010,07,05,14,29,17.90
2010,07,05,14,30,17.90
2010,07,05,14,31,17.90
2010,07,05,14,32,17.90
2010,07,05,14,33,18.00
2010,07,05,14,34,18.10
2010,07,05,14,35,18.20
2010,07,05,14,36,18.30
2010,07,05,14,37,18.20
2010,07,05,14,38,18.10
2010,07,05,14,39,18.10
2010,07,05,14,40,18.10
2010,07,05,14,41,18.10
2010,07,05,14,42,18.10
2010,07,05,14,43,18.10
2010,07,05,14,44,18.00
2010,07,05,14,45,18.00
2010,07,05,14,46,17.90
2010,07,05,14,47,17.90
2010,07,05,14,48,17.90
2010,07,05,14,49,17.90
2010,07,05,14,50,17.90
2010,07,05,14,51,18.00
2010,07,05,14,52,18.10
2010,07,05,14,53,18.30
2010,07,05,14,54,18.50
2010,07,05,14,55,18.50
2010,07,05,14,56,18.50
2010,07,05,14,57,18.50
2010,07,05,14,58,18.60
2010,07,05,14,59,18.70
2010,07,05,15,00,18.70
2010,07,05,15,01,18.70
2010,07,05,15,02,18.70
2010,07,05,15,03,18.80
2010,07,05,15,04,18.80
2010,07,05,15,05,18.90
2010,07,05,15,06,18.90
2010,07,05,15,07,18.90
2010,07,05,15,08,18.90
2010,07,05,15,09,19.00
2010,07,05,15,10,19.10
2010,07,05,15,11,19.10
2010,07,05,15,12,19.20
2010,07,05,15,13,19.20
2010,07,05,15,14,19.30
2010,07,05,15,15,19.30
2010,07,05,15,16,19.30
2010,07,05,15,17,19.20
2010,07,05,15,18,19.10
2010,07,05,15,19,19.10
2010,07,05,15,20,19.00
2010,07,05,15,21,19.00
2010,07,05,15,22,18.80
2010,07,05,15,23,18.80
2010,07,05,15,24,18.80
2010,07,05,15,25,18.80
2010,07,05,15,26,18.90
2010,07,05,15,27,18.90
2010,07,05,15,28,18.90
2010,07,05,15,29,18.90
2010,07,05,15,30,18.90
2010,07,05,15,31,18.90
2010,07,05,15,32,19.00
2010,07,05,15,33,19.10
2010,07,05,15,34,19.20
2010,07,05,15,35,19.30
2010,07,05,15,36,19.20
2010,07,05,15,37,19.10
2010,07,05,15,38,19.10
2010,07,05,15,39,19.10
2010,07,05,15,40,19.00
2010,07,05,15,41,18.90
2010,07,05,15,42,18.90
2010,07,05,15,43,18.80
2010,07,05,15,44,18.70
2010,07,05,15,45,18.70
2010,07,05,15,46,18.60
2010,07,05,15,47,18.60
2010,07,05,15,48,18.60
2010,07,05,15,49,18.70
2010,07,05,15,50,18.90
2010,07,05,15,51,18.90
2010,07,05,15,52,19.10
2010,07,05,15,53,19.10
2010,07,05,15,54,19.20
2010,07,05,15,55,19.20
2010,07,05,15,56,19.20
2010,07,05,15,57,19.20
2010,07,05,15,58,19.20
2010,07,05,15,59,19.00
2010,07,05,16,00,18.90
2010,07,05,16,01,18.80
2010,07,05,16,02,18.80
2010,07,05,16,03,18.80
2010,07,05,16,04,18.70
2010,07,05,16,05,18.70
2010,07,05,16,06,18.60
2010,07,05,16,07,18.60
2010,07,05,16,08,18.60
2010,07,05,16,09,18.60
2010,07,05,16,10,18.70
2010,07,05,16,11,18.70
2010,07,05,16,12,18.70
2010,07,05,16,13,18.70
2010,07,05,16,14,18.70
2010,07,05,16,15,18.80
2010,07,05,16,16,18.80
2010,07,05,16,17,18.90
2010,07,05,16,18,18.90
2010,07,05,16,19,18.90
2010,07,05,16,20,18.90
2010,07,05,16,21,18.90
2010,07,05,16,22,18.90
2010,07,05,16,23,19.00
2010,07,05,16,24,19.00
2010,07,05,16,25,19.20
2010,07,05,16,26,19.20
2010,07,05,16,27,19.20
2010,07,05,16,28,19.20
2010,07,05,16,29,19.20
2010,07,05,16,30,19.10
2010,07,05,16,31,19.10
2010,07,05,16,32,19.10
2010,07,05,16,33,19.10
2010,07,05,16,34,19.20
2010,07,05,16,35,19.20
2010,07,05,16,36,19.30
2010,07,05,16,37,19.30
2010,07,05,16,38,19.40
2010,07,05,16,39,19.40
2010,07,05,16,40,19.40
2010,07,05,16,41,19.40
2010,07,05,16,42,19.40
2010,07,05,16,43,19.40
2010,07,05,16,44,19.30
2010,07,05,16,45,19.20
2010,07,05,16,46,19.10
2010,07,05,16,47,19.10
2010,07,05,16,48,19.00
2010,07,05,16,49,19.00
2010,07,05,16,50,18.90
2010,07,05,16,51,18.80
2010,07,05,16,52,18.80
2010,07,05,16,53,18.80
2010,07,05,16,54,18.80
2010,07,05,16,55,18.90
2010,07,05,16,56,18.90
2010,07,05,16,57,18.90
2010,07,05,16,58,19.00
2010,07,05,16,59,19.00
2010,07,05,17,00,19.00
2010,07,05,17,01,18.90
2010,07,05,17,02,18.90
2010,07,05,17,03,18.90
2010,07,05,17,04,18.90
2010,07,05,17,05,18.90
2010,07,05,17,06,19.00
2010,07,05,17,07,19.00
2010,07,05,17,08,18.90
2010,07,05,17,09,18.90
2010,07,05,17,10,18.90
2010,07,05,17,11,18.90
2010,07,05,17,12,18.90
2010,07,05,17,13,18.90
2010,07,05,17,14,18.80
2010,07,05,17,15,18.80
2010,07,05,17,16,18.80
2010,07,05,17,17,18.70
2010,07,05,17,18,18.70
2010,07,05,17,19,18.70
2010,07,05,17,20,18.70
2010,07,05,17,21,18.70
2010,07,05,17,22,18.70